TimeCST,TemperatureF,Dew PointF,Humidity,Sea Level PressureIn,VisibilityMPH,Wind Direction,Wind SpeedMPH,Gust SpeedMPH,PrecipitationIn,Events,Conditions,WindDirDegrees,DateUTC
12:15 AM,67.5,40.1,37,29.81,10.0,SSE,4.6,-,N/A,,Clear,160,2013-12-20 06:15:00
12:35 AM,67.5,39.6,36,29.81,10.0,South,5.8,-,N/A,,Clear,170,2013-12-20 06:35:00
12:55 AM,68.4,39.6,35,29.81,10.0,South,9.2,-,N/A,,Clear,190,2013-12-20 06:55:00
1:15 AM,68.9,40.5,35,29.81,10.0,South,9.2,-,N/A,,Clear,190,2013-12-20 07:15:00
1:35 AM,68.7,41.0,36,29.81,10.0,South,9.2,-,N/A,,Clear,190,2013-12-20 07:35:00
1:55 AM,68.5,42.1,38,29.81,10.0,South,6.9,-,N/A,,Clear,190,2013-12-20 07:55:00
2:15 AM,68.4,42.8,40,29.82,10.0,South,6.9,-,N/A,,Clear,190,2013-12-20 08:15:00
2:35 AM,67.5,42.1,40,29.81,10.0,SSE,6.9,-,N/A,,Clear,160,2013-12-20 08:35:00
2:55 AM,67.1,41.9,40,29.81,10.0,South,6.9,-,N/A,,Clear,180,2013-12-20 08:55:00
3:15 AM,67.5,41.4,39,29.81,10.0,South,5.8,-,N/A,,Scattered Clouds,190,2013-12-20 09:15:00
3:35 AM,67.6,40.3,37,29.81,10.0,South,5.8,-,N/A,,Mostly Cloudy,170,2013-12-20 09:35:00
3:55 AM,68.2,39.7,35,29.81,10.0,South,6.9,-,N/A,,Overcast,170,2013-12-20 09:55:00
4:15 AM,68.4,40.3,36,29.81,10.0,SE,3.5,-,N/A,,Overcast,140,2013-12-20 10:15:00
4:35 AM,67.8,40.6,37,29.80,10.0,Calm,Calm,-,N/A,,Overcast,0,2013-12-20 10:35:00
4:55 AM,67.8,41.0,38,29.81,10.0,South,3.5,-,N/A,,Overcast,170,2013-12-20 10:55:00
5:15 AM,66.9,43.2,42,29.81,10.0,SSE,5.8,-,N/A,Rain,Light Rain,160,2013-12-20 11:15:00
5:35 AM,65.5,45.5,48,29.81,10.0,South,5.8,-,N/A,Rain,Light Rain,170,2013-12-20 11:35:00
5:55 AM,64.2,47.8,55,29.81,10.0,SE,4.6,-,N/A,Rain,Light Rain,130,2013-12-20 11:55:00
6:15 AM,61.9,50.2,65,29.80,10.0,ENE,3.5,-,N/A,Rain,Light Rain,70,2013-12-20 12:15:00
6:35 AM,60.8,51.6,72,29.81,10.0,Calm,Calm,-,N/A,Rain,Light Rain,0,2013-12-20 12:35:00
6:55 AM,60.8,52.0,73,29.80,10.0,NNE,3.5,-,0.01,Rain,Light Rain,30,2013-12-20 12:55:00
7:15 AM,59.9,52.2,76,29.79,10.0,NE,4.6,-,N/A,,Overcast,40,2013-12-20 13:15:00
7:35 AM,59.9,52.2,76,29.79,10.0,ENE,3.5,-,N/A,,Overcast,70,2013-12-20 13:35:00
7:55 AM,60.6,51.1,71,29.79,10.0,East,4.6,-,N/A,,Overcast,90,2013-12-20 13:55:00
8:15 AM,60.8,51.1,70,29.79,10.0,ENE,5.8,-,N/A,,Overcast,70,2013-12-20 14:15:00
8:35 AM,61.7,50.7,67,29.79,10.0,NNE,4.6,-,N/A,,Overcast,30,2013-12-20 14:35:00
8:55 AM,60.3,51.8,74,29.78,10.0,NE,8.1,-,N/A,,Overcast,40,2013-12-20 14:55:00
9:15 AM,60.1,51.6,74,29.79,10.0,NE,9.2,-,N/A,,Overcast,40,2013-12-20 15:15:00
9:35 AM,60.6,51.8,73,29.79,10.0,ENE,6.9,-,N/A,,Overcast,60,2013-12-20 15:35:00
9:55 AM,59.9,52.7,77,29.79,10.0,ENE,10.4,-,N/A,,Overcast,60,2013-12-20 15:55:00
10:15 AM,60.4,52.7,76,29.79,10.0,NE,10.4,-,N/A,Rain,Light Rain,40,2013-12-20 16:15:00
10:35 AM,60.8,53.1,76,29.79,10.0,NE,5.8,-,N/A,Rain,Light Rain,40,2013-12-20 16:35:00
10:55 AM,61.9,54.0,75,29.78,10.0,NE,8.1,-,N/A,,Overcast,40,2013-12-20 16:55:00
11:15 AM,62.8,53.4,71,29.77,10.0,NE,10.4,16.1,N/A,,Overcast,50,2013-12-20 17:15:00
11:35 AM,63.7,52.7,67,29.76,10.0,NE,9.2,-,N/A,,Overcast,50,2013-12-20 17:35:00
11:55 AM,64.4,52.5,65,29.74,10.0,NE,8.1,-,N/A,,Overcast,50,2013-12-20 17:55:00
12:15 PM,66.6,52.3,60,29.72,10.0,NE,6.9,-,N/A,,Overcast,40,2013-12-20 18:15:00
12:35 PM,70.5,51.1,50,29.70,10.0,ENE,6.9,-,N/A,,Overcast,70,2013-12-20 18:35:00
12:55 PM,70.7,49.6,47,29.69,10.0,ESE,6.9,-,N/A,,Overcast,110,2013-12-20 18:55:00
1:15 PM,69.8,49.3,48,29.67,10.0,ESE,6.9,-,N/A,,Overcast,110,2013-12-20 19:15:00
1:35 PM,69.4,49.5,49,29.65,10.0,East,3.5,-,N/A,,Overcast,80,2013-12-20 19:35:00
1:55 PM,69.3,50.2,51,29.65,10.0,ENE,3.5,-,N/A,,Overcast,60,2013-12-20 19:55:00
2:15 PM,69.4,50.0,50,29.63,10.0,NNE,4.6,-,N/A,,Overcast,30,2013-12-20 20:15:00
2:35 PM,69.3,50.5,51,29.61,10.0,NE,4.6,-,N/A,,Overcast,50,2013-12-20 20:35:00
2:55 PM,70.3,48.4,46,29.61,10.0,East,4.6,-,N/A,,Overcast,100,2013-12-20 20:55:00
3:15 PM,69.8,48.2,46,29.60,10.0,ESE,4.6,-,N/A,,Overcast,110,2013-12-20 21:15:00
3:35 PM,69.3,47.3,45,29.60,10.0,SE,3.5,-,N/A,,Overcast,130,2013-12-20 21:35:00
3:55 PM,66.9,52.2,59,29.64,10.0,WNW,25.3,33.4,N/A,Rain,Light Rain,300,2013-12-20 21:55:00
4:15 PM,61.7,54.9,78,29.66,10.0,WNW,18.4,27.6,0.01,Rain,Rain,300,2013-12-20 22:15:00
4:35 PM,61.2,54.7,79,29.67,10.0,WNW,24.2,31.1,0.01,Rain,Rain,290,2013-12-20 22:35:00
4:55 PM,60.3,53.4,78,29.68,10.0,WNW,19.6,27.6,0.01,Rain,Light Rain,300,2013-12-20 22:55:00
5:15 PM,59.5,52.7,78,29.68,10.0,NW,16.1,25.3,N/A,Rain,Light Rain,310,2013-12-20 23:15:00
5:35 PM,59.0,50.2,73,29.70,10.0,WNW,12.7,21.9,N/A,,Light Drizzle,290,2013-12-20 23:35:00
5:55 PM,58.1,50.2,75,29.72,10.0,WNW,10.4,-,N/A,Rain,Rain,290,2013-12-20 23:55:00
6:15 PM,57.2,50.0,77,29.72,10.0,WNW,10.4,-,0.01,Rain,Rain,290,2013-12-21 00:15:00
6:35 PM,55.9,50.7,83,29.73,10.0,WNW,5.8,-,0.01,Rain,Light Rain,290,2013-12-21 00:35:00
6:55 PM,55.2,51.3,87,29.75,10.0,WNW,6.9,-,0.02,Rain,Rain,290,2013-12-21 00:55:00
7:15 PM,54.9,51.3,88,29.76,7.0,WNW,3.5,-,0.05,Rain,Rain,300,2013-12-21 01:15:00
7:35 PM,54.1,52.2,93,29.73,10.0,North,4.6,-,0.08,Rain,Rain,10,2013-12-21 01:35:00
7:55 PM,54.1,51.8,92,29.71,10.0,ENE,6.9,-,0.09,Rain,Light Rain,60,2013-12-21 01:55:00
8:15 PM,54.5,51.8,91,29.74,7.0,Calm,Calm,-,0.02,Rain,Rain,0,2013-12-21 02:15:00
8:35 PM,54.0,52.3,94,29.73,10.0,East,6.9,-,0.05,Rain,Light Rain,80,2013-12-21 02:35:00
8:55 PM,54.3,51.1,89,29.69,10.0,East,11.5,18.4,0.08,Rain,Light Rain,80,2013-12-21 02:55:00
9:15 PM,54.9,51.1,87,29.71,10.0,East,4.6,-,N/A,,Overcast,80,2013-12-21 03:15:00
9:35 PM,54.5,51.4,89,29.71,10.0,NNE,3.5,-,N/A,,Overcast,30,2013-12-21 03:35:00
9:55 PM,54.5,51.3,89,29.70,10.0,NNE,3.5,-,N/A,,Overcast,30,2013-12-21 03:55:00
10:15 PM,54.5,51.3,89,29.70,10.0,North,5.8,-,N/A,,Mostly Cloudy,350,2013-12-21 04:15:00
10:35 PM,54.1,51.4,91,29.70,10.0,NNW,3.5,-,N/A,,Scattered Clouds,340,2013-12-21 04:35:00
10:55 PM,55.0,50.5,85,29.70,10.0,Calm,Calm,-,N/A,,Mostly Cloudy,0,2013-12-21 04:55:00
11:15 PM,54.7,50.5,86,29.70,10.0,Calm,Calm,-,N/A,,Scattered Clouds,0,2013-12-21 05:15:00
11:35 PM,55.0,50.2,84,29.68,10.0,West,4.6,-,N/A,,Clear,280,2013-12-21 05:35:00
11:55 PM,55.8,49.5,79,29.68,10.0,Calm,Calm,-,N/A,,Clear,0,2013-12-21 05:55:00